"Pseudo-MPEC" for P11JVDg

Created 2023 Sep 27 2:22:11 UT using Find_Orb

Click here for an explanation of pseudo-MPECs

 
 Astrometry: 
     P11JVDg* C2023 09 18C(ogj5eJExTe2.MiwAstrometry*.ZH6C$?.u@)LTTredacted;$F51
     P11JVDg  C2023 09 18GDm2n8d#Wv1^ebhtB7d@o](D#1p2kJjlI]XqvCt-?_l+HZYDKCduF51
     P11JVDg  C2023 09 18Zm?^XjJ$::p=QO5Mr/5kI'vqa/;g,bgM[%+KO/@CZ]t/L[67L_#VF51
     P11JVDg  C2023 09 18Y2K?+,XR1#:'w7a5epagQwXX\P[ldmrdf#[L637TjQ[hBC#.muy.F51
     P11JVDg  C2023 09 18WR^8y_clickqANRijrYu.G+$LRC!Q9/.EHD$:oE@D!rbj5J8wKV\F52
     P11JVDg  C2023 09 18*\4']f@GNeI)d'ChereYMcWN5t?R/CD`HBR6VYMBSNK?QT]Yw,:NF52
     P11JVDg 2C2023 09 244OH-[WP%=SY9+oo?wlrK=k#qN\HEBbs0kuM,n,I!f-512#x^@D;kT12
     P11JVDg 2C2023 09 24LQ9KM!x]Gs!t%J(KFD2\V8nY7,T5GEaR93%n1c;_didhJm:p7L,GT12
     P11JVDg 2C2023 09 24e![Va5kc4,;'forsAv_^kDH[.k_U+UmWnv=ORXdwAS^]Z1X0pn]WT12
     P11JVDg 2C2023 09 24/B2nQYmNd#/wB`ODU/Vg@explanation)vOY,eUZ`R`Tr]Ko%2h.T12

Station data:
(F51) Pan-STARRS 1, Haleakala  (N20.707234 W156.255910)  US/Hawaii.
   Observers J. Bulger, T. Lowe, A. Schultz, M. Willman. Measurers K.
   Chambers, S. Chastel, T. de Boer, L. Denneau, J. Fairlamb, H. Flewelling,
   M. Huber, C.-C. Lin, E. Magnier, Y. Ramanjooloo, R. Wainscoat, R. Weryk.
   1.8-m Ritchey-Chrétien + CCD.
(F52) Pan-STARRS 2, Haleakala  (N20.707382 W156.255910)  US/Hawaii.
   Observers J. Bulger, T. Dukes, T. Lowe, A. Schultz, M. Willman. Measurers
   K. Chambers, S. Chastel, T. de Boer, L. Denneau, J. Fairlamb, H.
   Flewelling, M. Huber, C.-C. Lin, E. Magnier, Y. Ramanjooloo, R. Wainscoat,
   R. Weryk. 1.8-m Ritchey-Chrétien + CCD.
(T12) Mauna Kea-UH/Tholen NEO Follow-Up (2.24-m)  (N19.822991 W155.469434)
   US/Hawaii.  Observer Y. Ramanjooloo. 2.24-m f/10.1 University of Hawaii
   reflector.

Orbital elements:  P11JVDg
   Perihelion 2013 Sep 4.80943 +/- 2146 TT = 19:25:34 (JD 2456540.30943)
Epoch 2023 Sep 24.0 TT = JDT 2460211.5                           AutoNEOCP
M  28.71632985 +/- 16               (J2000 ecliptic)
n   0.00782207 +/- 0.00314          Peri.   87.77202 +/- 35
a  25.1336008 +/- 6.72              Node   185.35780 +/- 8
e   0.4120621 +/- 0.175             Incl.   66.74955 +/- 16
P 126.00                   H  8.48  G  0.15   U  9.2  SR
q 14.7769941 +/- 1.81    Q 35.4902075 +/- 49.3
From 10 observations 2023 Sept. 18-24; mean residual 0".14
Residuals in arcseconds: 
230918 F51  .10-  .11+    230918 F52  .54+  .05-    230924 T12  .01+  .00     
230918 F51  .14-  .02-    230918 F52  .08-  .08-    230924 T12  .01+  .01+    
230918 F51  .10-  .01-    230924 T12  .03-  .01-    
230918 F51  .11-  .04+    230924 T12  .01+  .00     

Ephemerides (geocentric):
Date (UTC) HH   RA             Dec           delta  r     elong  mag " sig PA
---- --------  ------------   ------------  ------ ------ -----  --- --------
2023 09 27 02  22 56 02.543   +20 33 52.19  16.988 17.889 153.2 21.1 1.65  39
2023 09 27 03  22 56 02.136   +20 33 46.56  16.988 17.889 153.2 21.1 1.68  39
2023 09 27 04  22 56 01.729   +20 33 40.92  16.989 17.889 153.2 21.1 1.72  39
2023 09 27 05  22 56 01.323   +20 33 35.29  16.989 17.889 153.2 21.1 1.75  39
2023 09 27 06  22 56 00.916   +20 33 29.65  16.989 17.889 153.2 21.1 1.79  39
2023 09 27 07  22 56 00.510   +20 33 24.02  16.989 17.889 153.1 21.1 1.82  39
2023 09 27 08  22 56 00.104   +20 33 18.38  16.989 17.889 153.1 21.1 1.86  39
2023 09 27 09  22 55 59.698   +20 33 12.74  16.989 17.889 153.1 21.1 1.89  39
2023 09 27 10  22 55 59.292   +20 33 07.09  16.990 17.889 153.1 21.1 1.93  39
2023 09 27 11  22 55 58.887   +20 33 01.45  16.990 17.889 153.1 21.1 1.96  39
2023 09 27 12  22 55 58.481   +20 32 55.80  16.990 17.890 153.1 21.1 2.00  39
2023 09 27 13  22 55 58.076   +20 32 50.15  16.990 17.890 153.1 21.1 2.03  39
2023 09 27 14  22 55 57.671   +20 32 44.50  16.990 17.890 153.1 21.1 2.07  39
2023 09 27 15  22 55 57.266   +20 32 38.85  16.991 17.890 153.0 21.1 2.11  39
2023 09 27 16  22 55 56.861   +20 32 33.20  16.991 17.890 153.0 21.1 2.14  39
2023 09 27 17  22 55 56.457   +20 32 27.54  16.991 17.890 153.0 21.1 2.18  39
2023 09 27 18  22 55 56.052   +20 32 21.88  16.991 17.890 153.0 21.1 2.22  39
2023 09 27 19  22 55 55.648   +20 32 16.22  16.991 17.890 153.0 21.1 2.25  39
2023 09 27 20  22 55 55.244   +20 32 10.56  16.991 17.890 153.0 21.1 2.29  39
2023 09 27 21  22 55 54.840   +20 32 04.90  16.992 17.890 152.9 21.1 2.33  39
2023 09 27 22  22 55 54.436   +20 31 59.23  16.992 17.890 152.9 21.1 2.37  39
2023 09 27 23  22 55 54.033   +20 31 53.57  16.992 17.890 152.9 21.1 2.41  39
2023 09 28 00  22 55 53.629   +20 31 47.90  16.992 17.890 152.9 21.1 2.44  39
2023 09 28 01  22 55 53.226   +20 31 42.23  16.992 17.890 152.9 21.1 2.48  39
2023 09 28 02  22 55 52.823   +20 31 36.56  16.993 17.890 152.9 21.1 2.52  39
2023 09 28 03  22 55 52.420   +20 31 30.88  16.993 17.890 152.9 21.1 2.56  39
2023 09 28 04  22 55 52.017   +20 31 25.21  16.993 17.890 152.8 21.1 2.60  40
2023 09 28 05  22 55 51.615   +20 31 19.53  16.993 17.891 152.8 21.1 2.64  40
2023 09 28 06  22 55 51.212   +20 31 13.85  16.993 17.891 152.8 21.1 2.68  40
2023 09 28 07  22 55 50.810   +20 31 08.17  16.993 17.891 152.8 21.1 2.72  40
2023 09 28 08  22 55 50.408   +20 31 02.49  16.994 17.891 152.8 21.1 2.76  40
2023 09 28 09  22 55 50.006   +20 30 56.80  16.994 17.891 152.8 21.1 2.80  40
2023 09 28 10  22 55 49.604   +20 30 51.12  16.994 17.891 152.8 21.1 2.84  40
2023 09 28 11  22 55 49.203   +20 30 45.43  16.994 17.891 152.7 21.1 2.89  40
2023 09 28 12  22 55 48.801   +20 30 39.74  16.994 17.891 152.7 21.1 2.93  40
2023 09 28 13  22 55 48.400   +20 30 34.05  16.995 17.891 152.7 21.1 2.97  40
2023 09 28 14  22 55 47.999   +20 30 28.35  16.995 17.891 152.7 21.1 3.01  40
2023 09 28 15  22 55 47.598   +20 30 22.66  16.995 17.891 152.7 21.1 3.05  40
2023 09 28 16  22 55 47.197   +20 30 16.96  16.995 17.891 152.7 21.1 3.10  40
2023 09 28 17  22 55 46.797   +20 30 11.26  16.995 17.891 152.6 21.1 3.14  40
2023 09 28 18  22 55 46.396   +20 30 05.56  16.996 17.891 152.6 21.1 3.18  40
2023 09 28 19  22 55 45.996   +20 29 59.86  16.996 17.891 152.6 21.1 3.23  40
2023 09 28 20  22 55 45.596   +20 29 54.16  16.996 17.891 152.6 21.1 3.27  40
2023 09 28 21  22 55 45.196   +20 29 48.45  16.996 17.891 152.6 21.1 3.31  40
2023 09 28 22  22 55 44.797   +20 29 42.75  16.996 17.892 152.6 21.1 3.36  40
2023 09 28 23  22 55 44.397   +20 29 37.04  16.996 17.892 152.5 21.1 3.40  40
2023 09 29 00  22 55 43.998   +20 29 31.33  16.997 17.892 152.5 21.1 3.45  40
2023 09 29 01  22 55 43.599   +20 29 25.61  16.997 17.892 152.5 21.1 3.49  40